Location: CAO
(44.5093°N, 80.3921°W)
Time: 09:59:49
(UTC-05:00)

ARIANE 6 FM1 Upper Stage - Pass Details

Date: 30 January 2026
Orbit: 522 x 609 km, 62.0° (Epoch: 9 February)

Event Time Altitude Azimuth Distance (km) Brightness Sun altitude
Rises 18:58:42 0° 278° (W) 2,692 7.6 -16.3°
Reaches altitude 10° 19:02:10 10° 309° (NW) 1,786 5.8 -16.9°
Maximum altitude 19:03:50 12° 334° (NNW) 1,643 5.3 -17.2°
Drops below altitude 10° 19:05:30 10° 359° (N) 1,777 5.1 -17.5°
Enters shadow 19:06:36 - 12° (NNE) 1,995 5.3 -17.7°
